558  
ASUS42 KTBW 290317  
RWRFL  
FLORIDA REGIONAL WEATHER ROUNDUP  
NATIONAL WEATHER SERVICE TAMPA BAY RUSKIN FL  
1100 PM EDT TUE JUN 28 2016  
 
NOTE: "FAIR" INDICATES FEW OR NO CLOUDS BELOW 12,000 FEET WITH NO  
SIGNIFICANT WEATHER AND/OR S TO VISIBILITY
.  
 
FLZ001>010-012>015-112-114-115-290400-  
PANHANDLE FLORIDA  
 
CITY SKY/WX TMP DP RH WIND PRES REMARKS
 
PENSACOLA CLOUDY 81 73 76 CALM 29.96S  
PENSACOLA NAS PTCLDY 79 74 84 N3 29.96S  
MILTON NAS MOCLDY 76 74 93 CALM 29.97  
CRESTVIEW CLOUDY 74 71 91 CALM 29.98S  
DUKE FIELD MOCLDY 75 71 87 NE2 29.96S  
VALPARAISO MOCLDY 78 71 79 N3 29.96S  
MARY ESTHER PTCLDY 78 70 78 NW1 29.95  
PANAMA CITY FAIR 81 75 82 SW3 29.96S  
TYNDALL AFB PTCLDY 84 75 76 W8 29.96F  
APALACHICOLA PTCLDY 84 77 79 SW9 29.97R  
 
STATION/POSITION SKY/WX TEMP WIND PRES WAVE SWELL
 
AIR SEA DIR/SP/G HT/PER HT/PER  
(F) (DEG/KT/KT) (MB) (FT/S) (FT/S)  
30.1N 87.6W 85 88 1015.0R 1/ 6  
29.2N 88.2W 85 88 220/ 4/ 8 1014.4R  
28.8N 86.0W 83 85 250/ 6/ 8 1015.5R 1/ 3  
PANAMA CITY BEAC 87 1015.0  
TOWER C 83 250/ 9/ 10 1015.8S  
28.5N 84.5W 84 85 250/ 8/ 10 1015.6R 1/ 3  
 

 
FLZ011-016>038-118-127-128-134-139-239-290400-  
NORTH FLORIDA  
 
CITY SKY/WX TMP DP RH WIND PRES REMARKS
 
MARIANNA CLEAR 80 75 84 SW5 29.95R  
TALLAHASSEE PTCLDY 80 73 79 CALM 29.96S  
PERRY MOCLDY 81 76 83 CALM 29.98S  
LIVE OAK N/A 81 81 100 CALM 29.99S  
CROSS CITY N/A 81 74 79 SW5 29.98R  
LAKE CITY FAIR 77 73 88 CALM 29.99R  
GAINESVILLE CLOUDY 77 75 93 CALM 29.99S  
WILLISTON FAIR 81 75 83 CALM 30.00R  
MAYPORT NAS MOCLDY 81 72 74 SW7 29.96R  
JACKSONVILLE CLOUDY 80 74 81 SW6 29.96R  
JAX CECIL MOCLDY 81 73 78 S6 29.97R  
FERNANDINA BEA FAIR 82 77 83 SW5 29.95R  
ST AUGUSTINE CLOUDY 80 73 79 SW3 29.98S  
PALM COAST FAIR 79 75 87 CALM 29.99S  
 
STATION/POSITION SKY/WX TEMP WIND PRES WAVE SWELL
 
AIR SEA DIR/SP/G HT/PER HT/PER  
(F) (DEG/KT/KT) (MB) (FT/S) (FT/S)  
SHELL POINT 85 240/ 11/ 14 1013.5  
KEATON BEACH 84 250/ 13/ 15 1014.9R  
CEDAR KEY 84 280/ 7/ 9 1016.0R  
FERNANDINA 87 1014.1  
30.7N 81.3W 83 N/A 3/ 4  
MAYPORT 85 1014.6  
31.4N 80.9W 83 83 170/ 14/ 17 1014.2R 3/ 4 2/ 9  
ST AUGUSTINE 80 86 220/ 4/ 6 1015.9R  
 

 
FLZ040-043>046-052-053-057-058-063-144-290400-  
INTERIOR CENTRAL FLORIDA  
 
CITY SKY/WX TMP DP RH WIND PRES REMARKS
 
OCALA PTCLDY 79 72 78 SW5 30.00S  
THE VILLAGES N/A 81 75 83 CALM 29.90S  
LEESBURG CLOUDY 82 72 71 N5 30.00R  
SANFORD MOCLDY 81 73 76 SE7 29.99R  
ORLANDO EXEC CLOUDY 82 75 79 SW5 30.00R  
ORLANDO INTL CLOUDY 79 74 84 SE8 30.00R  
KISSIMMEE CLOUDY 81 75 82 S5 30.01R  
WINTER HAVEN CLOUDY 82 72 71 CALM 30.02R  
LAKELAND CLOUDY 79 77 94 CALM 30.01R  
BARTOW FAIR 77 75 94 CALM 30.02R  
OKEECHOBEE PTCLDY 77 72 83 SW3 30.02S  
 

 
FLZ041-047-054-059-064-141-147-290400-  
EAST CENTRAL FLORIDA  
 
CITY SKY/WX TMP DP RH WIND PRES REMARKS
 
DAYTONA BEACH MOCLDY 76 73 91 CALM 29.99R  
DELAND N/A 77 72 83 CALM 30.01S  
JFK SPACE CTR CLOUDY 79 74 86 S8 29.99R  
CAPE CANAVERAL CLOUDY 79 73 81 S3 29.99R  
PATRICK AFB CLOUDY 79 73 83 S10 30.00R  
MELBOURNE LGT RAIN 78 75 90 SE7 30.00S  
VERO BEACH PTCLDY 82 72 71 S10 30.00S  
FT PIERCE CLEAR 81 73 76 S7 30.00S  
STUART CLOUDY 84 73 70 S7 30.03R  
 
STATION/POSITION SKY/WX TEMP WIND PRES WAVE SWELL
 
AIR SEA DIR/SP/G HT/PER HT/PER  
(F) (DEG/KT/KT) (MB) (FT/S) (FT/S)  
28.5N 80.2W 83 84 170/ 17/ 21 1015.4R  
28.9N 78.5W 83 84 170/ 14/ 16 1016.2R  
TRIDENT PIER 87 1015.6  
28.4N 80.5W 85 N/A 3/ 5  
27.5N 80.2W 84 N/A 3/ 4  
 

 
FLZ050-056-061-142-242-148-248-149-249-151-251-155-255-  
160-260-290400-  
WEST CENTRAL FLORIDA  
 
CITY SKY/WX TMP DP RH WIND PRES REMARKS
 
CRYSTAL RIVER CLOUDY 81 73 78 CALM 30.00R  
INVERNESS CLOUDY 79 77 94 CALM 30.01R  
BROOKSVILLE PTCLDY 77 73 87 CALM 30.02R  
ZEPHYRHILLS FAIR 78 71 78 W5 30.01S  
CLEARWATER AIR FAIR 81 72 74 W3 30.01R  
ST PETE CLEARW CLEAR 82 71 69 W3 30.01R  
TAMPA INTL PTCLDY 82 73 74 NW5 30.01R  
TAMPA EXEC N/A 79 73 83 CALM 30.01R  
PLANT CITY MOCLDY 82 75 78 NW3 30.03R  
MACDILL AFB CLEAR 82 75 80 W3 30.01R  
PETER O KNIGHT CLEAR 84 75 74 CALM 30.01R  
ST PETERSBURG CLEAR 84 73 69 W6 29.99R  
SARASOTA PTCLDY 84 72 67 NW7 29.99R  
VENICE NOT AVBL  
 
STATION/POSITION SKY/WX TEMP WIND PRES WAVE SWELL
 
AIR SEA DIR/SP/G HT/PER HT/PER  
(F) (DEG/KT/KT) (MB) (FT/S) (FT/S)  
27.3N 84.2W 86 N/A 1  
CLEARWATER BEACH 89 1015.6  
MIDDLE TAMPA BAY 1015.7R  
VENICE 84 87 290/ 3/ 4 1015.8R  
 

 
FLZ066-069-070-075>078-162-262-165-265-290400-  
SOUTHWEST FLORIDA AND KEYS  
 
CITY SKY/WX TMP DP RH WIND PRES REMARKS
 
PUNTA GORDA PTCLDY 79 77 94 CALM 30.02R  
FT MYERS PTCLDY 79 76 90 E3 30.00R  
SOUTHWEST INTL MOCLDY 80 75 84 E5 30.00S  
NAPLES MOCLDY 81 74 79 E3 30.01R  
MARCO ISLAND CLOUDY 81 73 78 CALM 30.02R  
MARATHON PTCLDY 83 75 77 SE7 30.01R  
KEY WEST NAS PTCLDY 83 73 72 SE6 30.01R  
KEY WEST INTL PTCLDY 84 75 74 SE7 30.02R  
 
STATION/POSITION SKY/WX TEMP WIND PRES WAVE SWELL
 
AIR SEA DIR/SP/G HT/PER HT/PER  
(F) (DEG/KT/KT) (MB) (FT/S) (FT/S)  
NAPLES 89 1015.5  
26.0N 85.6W 83 86 250/ 2/ 4 1016.2R 1  
DRY TORTUGAS 83 130/ 2/ 2 1016.5R  
SAND KEY 84 160/ 8/ 10 1016.8R  
LONG KEY 84 89 140/ 9/ 12 1016.6R  
 

 
FLZ067-068-071>074-168-172>174-290400-  
SOUTHEAST FLORIDA  
 
CITY SKY/WX TMP DP RH WIND PRES REMARKS
 
W PALM BEACH PTCLDY 83 72 69 S6 30.03R  
BOCA RATON CLEAR 82 73 74 S3 30.02R  
FT LAUDER-EXEC CLEAR 81 72 74 S5 30.02R  
FT LAUDERDALE PTCLDY 83 72 69 S6 30.02R  
POMPANO BEACH CLEAR 83 73 72 S6 30.02R  
PEMBROKE PINES CLEAR 83 72 69 S3 30.03S  
OPA LOCKA CLEAR 80 73 79 SE3 30.03R  
MIAMI PTCLDY 82 73 74 SE3 30.02R  
WEST KENDALL PTCLDY 79 74 84 CALM 30.02R  
HOMESTEAD CLEAR 79 74 83 CALM 30.02R  
 
STATION/POSITION SKY/WX TEMP WIND PRES WAVE SWELL
 
AIR SEA DIR/SP/G HT/PER HT/PER  
(F) (DEG/KT/KT) (MB) (FT/S) (FT/S)  
PORT EVERGLADES 84 160/ 6/ 9 1016.6R  
VIRGINIA KEY 89 1016.7  
LAKE WORTH 180/ 13/ 15 N/A  
FOWEY ROCKS 83 85 120/ 9/ 10 1017.3R  
SETTLEMENT POINT 83 170/ 8/ 10 1017.7R  
 

 
 
 
 
CLICK HERE TO GO TO PREVIOUS BULLETINS.

The Nexlab FL Page Main Text Page